COSMOS 252 DEB, 3561

Orbit data source: Space-Track

COSMOS 252 DEB, 3561 is space debris in LEO originally from a launch on Fri, 01 Nov 1968 UTC launched from the Tyuratam Missile And Space Complex (TTMTR). Debris objects in space refer to the collection of defunct objects orbiting the Earth. Examples of debris include non-operational satellites, rocket bodies, and fragments generated from explosions, collisions, or faulty payload assembly.

Loading next visibility...
Identifier
3561, 1968-097P
Orbit
LEO
Country
Flag of CISCIS
Related business
Manufacturer
Unknown
Mission
Spacecraft
Bus & Motor
Unknown
Mass
Unknown
Launch date (UTC)
1968-11-01 (57 years ago)
Launch vehicle
Unknown
Launch site
Tyuratam Missile And Space Complex (TTMTR)
Object type
Payload
Rocket body
Debris
Shape & HBR
Unknown shape, 0.4 m
Radar Cross Section
Medium (>0.1 m² and <1 m²)

Expand to show TLE details & history
Last TLE update: 9 hours ago

TLE from 9 hours ago
0 COSMOS 252 DEB
1 03561U 68097P   25307.90212783  .00011002  00000-0  17890-2 0  9995
2 03561  62.2722  14.0088 0365086 251.0663 105.0502 14.35639071808839
Epoch: 2025-11-03T21:39Z
TLE epoch observation values (Epoch: 2025-11-03T21:39:03.844Z)
Latitude
0.00006°
Longitude
5.84597°
Altitude
851.24 km
Speed
7.388 km/s
True Right ascension
00h 56m 02s
True Declination
0° 00' 00"
Sunlit
Object was in full shadow at epoch
Visualization orbit readout
Latitude
Unknown
Longitude
Unknown
Altitude
Unknown
Speed
Unknown
Apparent Right ascension
Unknown
Apparent Declination
Unknown
Sunlit
N/A
Visualization observer readout
Local Sidereal Time
02:35:13
Azimuth
Unknown
Elevation
Unknown
Doppler factor
Unknown
Orbital elements
Apogee altitude
1,032.903 km
Perigee altitude
510.83 km
Semi-major axis
7,150.003 km
Eccentricity
0.03651
Inclination
62.2722°
RAAN
14.0088°
Arg. of periapsis
251.0663°
True anomaly
109.03972°
Mean anomaly
105.0502°
Eccentric anomaly
107.05005°
Mean motion
3.58991 °/min
Orbital period
100.28 mins
BSTAR
0.001789
Loading maneuver chart data...
Computing Atmospheric mass density...

Documentation

Showing up to 5 results
|